Home > Weather > Södertälje > Past weeks

Flag for Sweden Weather for the Past 2 Weeks in Södertälje, Sweden

Now
41 °F

Passing clouds.


Feels Like: 34 °F
Forecast: 37 / 42 °F
Wind: 13 mph from South

Location: Stockholm Bromma Airport

Current Time: Feb 7, 2016 at 3:02:47 PM

Latest Report: Feb 7, 2016 at 2:20 PM


Visibility: N/A

Pressure: 29.45 "Hg

Humidity: 87%

Dew point: 37 °F

Location of SödertäljeLocation

Historic Weather in Södertälje — Graph

°F

Södertälje Temperature Yesterday

Maximum temperature yesterday: 43 °F (at 9:20 PM)
Minimum temperature yesterday: 23 °F (at 12:20 AM)
Average temperature yesterday: 37 °F

High & Low Weather Summary for the Past Weeks

 TemperatureHumidityPressure
High46 °F (Jan 29, 8:50 PM)100% (Jan 23, 7:50 PM)30.24 "Hg (Jan 23, 7:50 PM)
Low21 °F (Feb 5, 10:50 PM)57% (Jan 29, 11:20 PM)28.85 "Hg (Feb 2, 3:50 AM)
Average36 °F84%29.49 "Hg
* Reported Jan 23 1:20 PM — Feb 7 1:50 PM, Södertälje, Weather by CustomWeather, © 2016

Note: Actual official high and low records may vary slightly from our data, if they occured in-between our weather recording intervals... More about our weather records

Advertising

Södertälje Weather History for the Previous 24 Hours

 ConditionsComfort  
Time TempWeatherWind HumidityBarometerVisibility
1:50 PM
Sun, Feb 7
43 °FScattered clouds.12 mph81%29.47 "HgN/A
1:20 PM45 °FSunny.12 mph81%29.47 "Hg10 mi
12:50 PM45 °FSunny.12 mph81%29.47 "Hg10 mi
12:20 PM45 °FPassing clouds.9 mph76%29.47 "HgN/A
11:50 AM45 °FPassing clouds.9 mph76%29.50 "HgN/A
11:20 AM45 °FPartly sunny.7 mph76%29.50 "HgN/A
10:50 AM43 °FPartly sunny.8 mph81%29.50 "HgN/A
10:20 AM43 °FPartly sunny.7 mph81%29.50 "HgN/A
9:50 AM41 °FQuite cool.9 mph87%29.50 "HgN/A
9:20 AM41 °FScattered clouds.9 mph87%29.50 "HgN/A
8:50 AM41 °FFog.8 mph87%29.50 "Hg5 mi
8:20 AM41 °FFog.7 mph87%29.50 "Hg4 mi
7:50 AM41 °FFog.7 mph87%29.53 "Hg4 mi
7:20 AM41 °FFog.9 mph87%29.53 "Hg4 mi
6:50 AM41 °FFog.9 mph93%29.53 "Hg4 mi
6:20 AM41 °FFog.7 mph93%29.53 "Hg4 mi
5:50 AM41 °FFog.7 mph93%29.53 "Hg3 mi
5:20 AM41 °FFog.7 mph93%29.56 "Hg4 mi
4:20 AM39 °FFog.9 mph100%29.56 "Hg4 mi
3:50 AM41 °FLow clouds.8 mph87%29.56 "HgN/A
3:20 AM41 °FOvercast.6 mph93%29.56 "HgN/A
2:20 AM41 °FPartly cloudy.5 mph93%29.59 "HgN/A
1:50 AM41 °FPartly cloudy.6 mph93%29.59 "HgN/A
1:20 AM41 °FMostly cloudy.7 mph93%29.59 "HgN/A
12:50 AM41 °FLow clouds.7 mph100%29.59 "HgN/A
12:20 AM43 °FLow clouds.8 mph93%29.59 "HgN/A
11:50 PM
Sat, Feb 6
43 °FMostly cloudy.7 mph93%29.62 "HgN/A
11:20 PM43 °FOvercast.8 mph93%29.62 "HgN/A
10:50 PM43 °FLow clouds.7 mph93%29.62 "HgN/A
9:50 PM41 °FOvercast.8 mph100%29.62 "HgN/A
9:20 PM43 °FLow clouds.10 mph87%29.62 "HgN/A
8:50 PM41 °FLow clouds.10 mph93%29.59 "HgN/A
8:20 PM41 °FMostly cloudy.9 mph93%29.62 "HgN/A
7:50 PM41 °FMostly cloudy.9 mph93%29.59 "HgN/A
7:20 PM41 °FPartly cloudy.8 mph93%29.59 "HgN/A
6:50 PM41 °FPassing clouds.9 mph93%29.59 "HgN/A
6:20 PM41 °FMostly cloudy.10 mph93%29.59 "HgN/A
5:50 PM41 °FLow clouds.10 mph87%29.59 "HgN/A
5:20 PM41 °FMostly cloudy.12 mph87%29.59 "HgN/A
4:50 PM41 °FPassing clouds.12 mph87%29.62 "HgN/A
4:20 PM41 °FPassing clouds.12 mph87%29.62 "HgN/A
3:50 PM41 °FPartly sunny.12 mph87%29.62 "HgN/A
3:20 PM39 °FPartly sunny.10 mph93%29.62 "HgN/A
Weather by CustomWeather, © 2016

See weather overviewHow to use our weather pages